Location: D�rnast
(49.6426°N, 11.9755°E)
Time: 20:31:51
(UTC+00:00)

Envisat - Pass Details

Date: 23 April 2021
Orbit: 764 x 766 km, 98.1° (Epoch: 06 May)

Event Time Altitude Azimuth Distance (km) Brightness Sun altitude
Rises 03:21:56 0° 29° (NNE) 3,242 7.4 -7.0°
Reaches altitude 10° 03:25:20 10° 53° (NE) 2,310 7.2 -6.5°
Maximum altitude 03:28:08 15° 87° (E) 1,995 6.3 -6.1°
Drops below altitude 10° 03:30:55 10° 120° (ESE) 2,300 6.0 -5.7°
Sets 03:34:17 0° 144° (SE) 3,220 6.4 -5.2°
